Weather History for Sussex, NJ

Change the Weather History Date:

Wednesday, June 5, 2013

  Actual Average Record
Temperature  
Mean Temperature 58 °F -  
Max Temperature 75 °F 75 °F 89 °F (1953)
Min Temperature 42 °F 49 °F 39 °F (1964)
Degree Days  
Heating Degree Days 8    
Growing Degree Days 8 (Base 50)    
Moisture  
Dew Point 45 °F    
Average Humidity 64    
Maximum Humidity 92    
Minimum Humidity 34    
Precipitation  
Precipitation 0.00 in - - ()
Sea Level Pressure  
Sea Level Pressure 30.16 in    
Wind  
Wind Speed 1 mph (SSE)    
Max Wind Speed 7 mph    
Max Gust Speed -    
Visibility 10 miles    
Events Rain    
Averages and records for this station are not official NWS values.
T = Trace of Precipitation, MM = Missing Value Source: NWS Daily Summary

Daily Weather History Graph

Daily Weather History Graph

Search for Another Location

Airport:

Trip Planner

Search our weather history database for the weather conditions in past years. The results will help you decide how hot, cold, wet, or windy it might be!

Date:

Astronomy

Jun. 05, 2013 Rise Set
Actual Time 5:26 AM EDT 8:27 PM EDT
Civil Twilight 4:53 AM EDT 9:01 PM EDT
Nautical Twilight 4:10 AM EDT 9:43 PM EDT
Astronomical Twilight 3:21 AM EDT 10:33 PM EDT
Moon 3:30 AM EDT (6/5) 5:51 PM EDT (6/5)
Length of Visible Light 16h 08m
Length of Day
15h 01m
Waning Crescent, 8% of the Moon is Illuminated
Jun 5
Waning Crescent
Jun 8
New
Jun 16
First Quarter
Jun 23
Full
Jun 30
Last Quarter

Hourly Weather History & Observations

Time (EDT) Temp. Dew Point Humidity Pressure Visibility Wind Dir Wind Speed Gust Speed Precip Events Conditions
12:53 AM 48.0 °F 44.1 °F 86% 30.14 in 10.0 mi Calm Calm - N/A   Clear
1:53 AM 46.0 °F 41.0 °F 83% 30.15 in 10.0 mi Calm Calm - N/A   Clear
2:53 AM 44.1 °F 41.0 °F 89% 30.14 in 10.0 mi Calm Calm - N/A   Clear
3:53 AM 42.1 °F 39.9 °F 92% 30.15 in 10.0 mi Calm Calm - N/A   Clear
4:53 AM 42.1 °F 39.9 °F 92% 30.16 in 10.0 mi Calm Calm - N/A   Clear
5:53 AM 42.1 °F 39.9 °F 92% 30.18 in 10.0 mi Calm Calm - N/A   Clear
6:53 AM 46.0 °F 43.0 °F 89% 30.21 in 10.0 mi Calm Calm - N/A   Clear
7:53 AM 53.1 °F 43.0 °F 69% 30.22 in 10.0 mi Calm Calm - N/A   Clear
8:53 AM 61.0 °F 45.0 °F 56% 30.22 in 10.0 mi Calm Calm - 0.00 in   Clear
9:53 AM 64.0 °F 45.0 °F 50% 30.22 in 10.0 mi Variable 3.5 mph - N/A   Clear
10:53 AM 66.9 °F 46.9 °F 49% 30.20 in 10.0 mi Calm Calm - N/A   Clear
11:53 AM 69.1 °F 48.9 °F 49% 30.19 in 10.0 mi Variable 3.5 mph - 0.00 in Rain Light Rain
12:53 PM 72.0 °F 48.9 °F 44% 30.17 in - Variable 6.9 mph - N/A   Clear
1:53 PM 73.0 °F 46.0 °F 38% 30.15 in - Calm Calm - N/A   Clear
2:53 PM 73.0 °F 48.0 °F 41% 30.12 in 10.0 mi SE 6.9 mph - N/A   Clear
3:53 PM 73.9 °F 44.1 °F 34% 30.12 in 10.0 mi Calm Calm - N/A   Clear
5:53 PM 72.0 °F 48.9 °F 44% 30.12 in 10.0 mi Variable 6.9 mph - N/A   Clear
6:53 PM 70.0 °F 46.0 °F 42% 30.11 in 10.0 mi South 6.9 mph - N/A   Clear
7:53 PM 66.0 °F 46.0 °F 48% 30.11 in 10.0 mi SSE 4.6 mph - N/A   Clear
8:53 PM 60.1 °F 48.0 °F 64% 30.12 in 10.0 mi Calm Calm - 0.00 in   Clear
9:53 PM 57.0 °F 46.9 °F 69% 30.12 in 10.0 mi Calm Calm - 0.00 in   Clear
10:53 PM 54.0 °F 48.0 °F 80% 30.14 in 10.0 mi Calm Calm - 0.00 in   Clear
11:53 PM 53.1 °F 48.0 °F 83% 30.14 in 10.0 mi Calm Calm - N/A   Clear